Aérodrome :
LOGIN :

S'inscrire | Disclaimer

   EN    FR    IT 

 










Légende :    VFR   VFR Marginal   IFR   IFR Intensif   IFR Très Intensif
Visi : 
Plafond : 
>= 8 km
>= 3000ft
5 à 8 km
1000 à 3000 ft
1500m à 5 km
500 à 1000 ft
800 à 1500m
200 à 500 ft
< 800m
< 200 ft
Symboles :   Orages  Brouillard  Fortes neiges  Fortes précipitations  Vent > 20 kt
SIGMETs :   Divers  Orages  Givrage  Turbulence  Onde Orograph.  Cendres Volcan.







- Altitude de l'aérodrome : 659 ft
- Code IATA : LYN
- Voir les cartes d'approche


LFLY - Lyon Bron

DERNIER METAR :
  • 242130Z AUTO 34007KT CAVOK 19/08 Q1019 NOSIG

METARs EXPIRÉS :
  • 242100Z AUTO 35006KT 330V040 CAVOK 20/08 Q1019 NOSIG
  • 242030Z AUTO 35007KT 340V050 CAVOK 20/07 Q1019 NOSIG
  • 242000Z AUTO 35006KT 320V040 CAVOK 21/07 Q1018 NOSIG
  • 241930Z AUTO 35008KT 330V040 CAVOK 21/07 Q1018 NOSIG
  • 241900Z AUTO 35010KT 330V050 CAVOK 22/07 Q1018 NOSIG

TAF TAF LFLY
Valide du 24 à 18h jusqu'au 25 à 18h UTC


241700Z 2418/2518 36010KT CAVOK
TEMPO 2510/2518 36015G25KT
ATIS : +33 4 72 15 87 96
Pas de NOTAMs connus pour ce terrain.



MET'MAP, la Météo Aéronautique d'un coup d'oeil ! - Copyright ORBIFLY Décembre 2007 - Disclaimer

ORBIFLY MET'MAP TEAM :

Programmation & Développement : Alexandra Zaïnal
Conception & Développement : Baudouin d'Aumeries
Co-Programmation & Développement : Marc-Olivier Méhu
Soutien technique & logistique : Manuel Goepfert

Contact : metmap@orbifly.com




SOURCES & CREDITS :

   NOAA